• In Spain
  • List of Countries
  • For 7 days
  • Water Temperature
  • Satellite Maps
  • Weather Map
  • Weather Widgets
  • user-avatar
    Login

    Hourly Weather Batina

    Today, 26 February, Monday

    Time Temperature Precipitation Wind Pressure Humidity
    00:00 +4°C° 0 mm 1 mps 664 mmHg 66%
    01:00 +4°C° 0 mm 1 mps 664 mmHg 66%
    02:00 +3°C° 0 mm 1 mps 664 mmHg 66%
    03:00 +3°C° 0 mm 1 mps 664 mmHg 66%
    04:00 +3°C° 0 mm 1 mps 664 mmHg 64%
    05:00 +2°C° 0 mm 1 mps 663 mmHg 62%
    06:00 +2°C° 0 mm 1 mps 663 mmHg 61%
    07:00 +4°C° 0 mm 1 mps 664 mmHg 51%
    08:00 +6°C° 0 mm 1 mps 664 mmHg 42%
    09:00 +8°C° 0 mm 1 mps 665 mmHg 32%
    10:00 +8°C° 0 mm 2 mps 665 mmHg 29%
    11:00 +9°C° 0 mm 2 mps 665 mmHg 26%
    12:00 +10°C° 0 mm 3 mps 665 mmHg 23%
    13:00 +11°C° 0 mm 3 mps 664 mmHg 22%
    14:00 +11°C° 0 mm 4 mps 664 mmHg 22%
    15:00 +12°C° 0 mm 4 mps 663 mmHg 21%
    16:00 +10°C° 0 mm 3 mps 663 mmHg 25%
    17:00 +9°C° 0 mm 3 mps 662 mmHg 30%
    18:00 +7°C° 0 mm 2 mps 662 mmHg 34%
    19:00 +7°C° 0 mm 2 mps 662 mmHg 35%
    20:00 +6°C° 0 mm 2 mps 662 mmHg 37%
    21:00 +6°C° 0 mm 2 mps 661 mmHg 39%
    22:00 +6°C° 0 mm 2 mps 661 mmHg 39%
    23:00 +6°C° 0 mm 2 mps 661 mmHg 40%

    Tomorrow, 27 February, Tuesday

    Time Temperature Precipitation Wind Pressure Humidity
    00:00 +5°C° 0 mm 2 mps 660 mmHg 41%
    01:00 +5°C° 0 mm 2 mps 660 mmHg 43%
    02:00 +5°C° 0 mm 2 mps 660 mmHg 45%
    03:00 +5°C° 0 mm 2 mps 660 mmHg 47%
    04:00 +5°C° 0 mm 2 mps 659 mmHg 49%
    05:00 +6°C° 0 mm 1 mps 659 mmHg 51%
    06:00 +5°C° 0 mm 1 mps 659 mmHg 53%
    07:00 +6°C° 0 mm 2 mps 660 mmHg 50%
    08:00 +7°C° 0 mm 2 mps 661 mmHg 46%
    09:00 +9°C° 0 mm 2 mps 662 mmHg 43%
    10:00 +9°C° 0 mm 3 mps 662 mmHg 41%
    11:00 +10°C° 0 mm 4 mps 662 mmHg 40%
    12:00 +10°C° 0 mm 5 mps 662 mmHg 38%
    13:00 +10°C° 0.1 mm 5 mps 662 mmHg 44%
    14:00 +9°C° 0.1 mm 5 mps 662 mmHg 49%
    15:00 +9°C° 0.1 mm 6 mps 662 mmHg 55%
    16:00 +9°C° 0 mm 5 mps 663 mmHg 59%
    17:00 +8°C° 0 mm 4 mps 663 mmHg 63%
    18:00 +8°C° 0 mm 3 mps 663 mmHg 67%
    19:00 +8°C° 0 mm 3 mps 664 mmHg 71%
    20:00 +7°C° 0 mm 2 mps 664 mmHg 76%
    21:00 +7°C° 0 mm 2 mps 665 mmHg 80%
    22:00 +7°C° 0 mm 2 mps 665 mmHg 82%
    23:00 +6°C° 0 mm 2 mps 665 mmHg 84%

    Day after tomorrow, 28 February, Wednesday

    Time Temperature Precipitation Wind Pressure Humidity
    00:00 +6°C° 0 mm 2 mps 665 mmHg 86%
    01:00 +6°C° 0 mm 2 mps 664 mmHg 87%
    02:00 +6°C° 0 mm 2 mps 664 mmHg 87%
    03:00 +5°C° 0 mm 2 mps 664 mmHg 87%
    04:00 +5°C° 0 mm 2 mps 664 mmHg 85%
    05:00 +5°C° 0 mm 2 mps 664 mmHg 84%
    06:00 +5°C° 0 mm 2 mps 664 mmHg 82%
    07:00 +7°C° 0 mm 3 mps 665 mmHg 71%
    08:00 +8°C° 0 mm 4 mps 666 mmHg 59%
    09:00 +10°C° 0 mm 5 mps 667 mmHg 48%
    10:00 +13°C° 0 mm 6 mps 667 mmHg 45%
    11:00 +14°C° 0 mm 7 mps 667 mmHg 43%
    12:00 +15°C° 0 mm 9 mps 667 mmHg 40%
    13:00 +15°C° 0 mm 9 mps 666 mmHg 40%
    14:00 +15°C° 0 mm 9 mps 666 mmHg 40%
    15:00 +15°C° 0 mm 9 mps 665 mmHg 40%
    16:00 +14°C° 0 mm 7 mps 665 mmHg 43%
    17:00 +13°C° 0 mm 6 mps 665 mmHg 47%
    18:00 +12°C° 0 mm 5 mps 664 mmHg 50%
    19:00 +10°C° 0 mm 5 mps 665 mmHg 50%
    20:00 +10°C° 0 mm 5 mps 665 mmHg 49%
    21:00 +10°C° 0 mm 5 mps 665 mmHg 49%
    22:00 +10°C° 0 mm 5 mps 665 mmHg 48%
    23:00 +10°C° 0 mm 5 mps 664 mmHg 47%

    1 March, Thursday

    Time Temperature Precipitation Wind Pressure Humidity
    00:00 +9°C° 0 mm 5 mps 664 mmHg 46%
    01:00 +9°C° 0 mm 5 mps 664 mmHg 46%
    02:00 +8°C° 0 mm 5 mps 663 mmHg 46%
    03:00 +8°C° 0 mm 4 mps 662 mmHg 46%
    04:00 +8°C° 0 mm 4 mps 662 mmHg 46%
    05:00 +7°C° 0 mm 4 mps 662 mmHg 46%
    06:00 +7°C° 0 mm 4 mps 662 mmHg 46%
    07:00 +10°C° 0 mm 5 mps 662 mmHg 40%
    08:00 +12°C° 0 mm 7 mps 663 mmHg 35%
    09:00 +16°C° 0 mm 9 mps 663 mmHg 29%
    10:00 +17°C° 0 mm 10 mps 663 mmHg 27%
    11:00 +18°C° 0 mm 11 mps 662 mmHg 26%
    12:00 +19°C° 0 mm 12 mps 662 mmHg 24%
    13:00 +18°C° 0 mm 12 mps 661 mmHg 24%
    14:00 +18°C° 0 mm 12 mps 661 mmHg 24%
    15:00 +18°C° 0 mm 12 mps 660 mmHg 23%
    16:00 +16°C° 0 mm 10 mps 660 mmHg 35%
    17:00 +13°C° 0 mm 8 mps 660 mmHg 46%
    18:00 +11°C° 0 mm 6 mps 660 mmHg 58%
    19:00 +10°C° 0 mm 5 mps 661 mmHg 59%
    20:00 +11°C° 0 mm 4 mps 662 mmHg 61%
    21:00 +10°C° 0 mm 3 mps 662 mmHg 63%
    22:00 +10°C° 0 mm 4 mps 662 mmHg 64%
    23:00 +10°C° 0 mm 4 mps 662 mmHg 66%

    2 March, Friday

    Time Temperature Precipitation Wind Pressure Humidity
    00:00 +8°C° 0 mm 4 mps 662 mmHg 67%
    01:00 +8°C° 0 mm 5 mps 662 mmHg 71%
    02:00 +8°C° 0 mm 6 mps 662 mmHg 75%
    03:00 +8°C° 0 mm 6 mps 662 mmHg 79%
    04:00 +7°C° 0 mm 5 mps 662 mmHg 81%
    05:00 +7°C° 0 mm 5 mps 663 mmHg 84%
    06:00 +6°C° 0 mm 4 mps 663 mmHg 86%
    07:00 +8°C° 0 mm 4 mps 664 mmHg 77%
    08:00 +9°C° 0 mm 5 mps 664 mmHg 67%
    09:00 +12°C° 0 mm 5 mps 665 mmHg 58%
    10:00 +13°C° 0 mm 5 mps 666 mmHg 52%
    11:00 +14°C° 0 mm 6 mps 666 mmHg 46%
    12:00 +15°C° 0 mm 7 mps 667 mmHg 40%
    13:00 +15°C° 0 mm 7 mps 667 mmHg 38%
    14:00 +16°C° 0 mm 6 mps 667 mmHg 37%
    15:00 +16°C° 0 mm 6 mps 666 mmHg 35%
    16:00 +15°C° 0 mm 5 mps 666 mmHg 40%
    17:00 +14°C° 0 mm 4 mps 666 mmHg 44%
    18:00 +13°C° 0 mm 2 mps 666 mmHg 49%
    19:00 +13°C° 0 mm 2 mps 666 mmHg 53%
    20:00 +12°C° 0 mm 2 mps 667 mmHg 57%
    21:00 +11°C° 0 mm 1 mps 667 mmHg 60%
    22:00 +11°C° 0 mm 1 mps 667 mmHg 61%
    23:00 +11°C° 0 mm 1 mps 666 mmHg 62%

    3 March, Saturday

    Time Temperature Precipitation Wind Pressure Humidity
    00:00 +10°C° 0 mm 2 mps 666 mmHg 63%
    01:00 +10°C° 0 mm 2 mps 666 mmHg 65%
    02:00 +9°C° 0 mm 2 mps 666 mmHg 67%
    03:00 +9°C° 0 mm 2 mps 666 mmHg 68%
    04:00 +9°C° 0 mm 2 mps 666 mmHg 71%
    05:00 +9°C° 0 mm 2 mps 666 mmHg 73%
    06:00 +9°C° 0 mm 2 mps 666 mmHg 75%
    07:00 +11°C° 0 mm 3 mps 667 mmHg 67%
    08:00 +13°C° 0 mm 4 mps 668 mmHg 59%
    09:00 +15°C° 0 mm 5 mps 668 mmHg 51%
    10:00 +16°C° 0 mm 5 mps 668 mmHg 48%
    11:00 +17°C° 0 mm 4 mps 668 mmHg 45%
    12:00 +18°C° 0 mm 4 mps 668 mmHg 42%
    13:00 +18°C° 0 mm 4 mps 668 mmHg 40%
    14:00 +19°C° 0 mm 4 mps 668 mmHg 38%
    15:00 +19°C° 0 mm 4 mps 668 mmHg 36%
    16:00 +18°C° 0 mm 3 mps 668 mmHg 41%
    17:00 +17°C° 0 mm 3 mps 667 mmHg 46%
    18:00 +16°C° 0 mm 2 mps 667 mmHg 51%
    19:00 +15°C° 0 mm 2 mps 667 mmHg 54%
    20:00 +14°C° 0 mm 2 mps 667 mmHg 58%
    21:00 +14°C° 0 mm 1 mps 667 mmHg 61%
    22:00 +13°C° 0 mm 2 mps 667 mmHg 60%
    23:00 +13°C° 0 mm 2 mps 666 mmHg 60%
    Show more